Precipitable_Water
1.32 1.34 1.36 1.40 1.46 1.50 1.52 1.49 1.45 1.43 1.45 1.45 1.43 1.47 1.40 1.39 1.34 1.33 1.32 1.32 1.31 1.26 1.23 1.20 1.18 1.19 1.15 1.10 1.08 1.05 1.03 1.03 1.01 1.03 1.03 1.04 1.04 1.04 1.03 1.03 1.04 1.02
1.32 1.38 1.41 1.43 1.46 1.50 1.53 1.54 1.49 1.49 1.47 1.51 1.52 1.52 1.47 1.43 1.38 1.37 1.36 1.32 1.31 1.26 1.25 1.22 1.20 1.22 1.18 1.15 1.12 1.08 1.07 1.05 0.99 1.04 1.02 1.03 1.06 1.08 1.08 1.12 1.13 1.14
1.35 1.39 1.42 1.40 1.43 1.47 1.50 1.57 1.54 1.54 1.53 1.57 1.60 1.57 1.53 1.47 1.42 1.42 1.41 1.38 1.35 1.32 1.31 1.29 1.28 1.27 1.25 1.23 1.21 1.14 1.11 1.07 1.01 1.04 1.04 1.03 1.08 1.07 1.10 1.11 1.11 1.09
1.37 1.42 1.42 1.44 1.47 1.49 1.53 1.54 1.49 1.50 1.51 1.54 1.58 1.59 1.58 1.52 1.46 1.42 1.38 1.37 1.35 1.32 1.35 1.35 1.33 1.33 1.27 1.25 1.24 1.18 1.15 1.12 1.10 1.07 1.04 1.07 1.10 1.10 1.09 1.11 1.09 1.06
1.39 1.46 1.46 1.48 1.50 1.52 1.52 1.50 1.43 1.46 1.48 1.54 1.58 1.61 1.55 1.48 1.44 1.43 1.40 1.38 1.34 1.34 1.35 1.37 1.39 1.36 1.33 1.30 1.28 1.20 1.17 1.14 1.14 1.10 1.05 1.03 1.05 1.06 1.06 1.06 1.03 0.99
1.41 1.46 1.44 1.45 1.49 1.47 1.43 1.42 1.40 1.45 1.46 1.50 1.54 1.56 1.54 1.52 1.45 1.41 1.40 1.37 1.35 1.33 1.39 1.43 1.41 1.37 1.33 1.32 1.31 1.24 1.20 1.15 1.16 1.16 1.11 1.05 1.03 1.03 1.03 1.02 0.98 0.96
1.36 1.39 1.41 1.47 1.49 1.49 1.50 1.42 1.41 1.45 1.46 1.49 1.50 1.52 1.45 1.41 1.41 1.38 1.39 1.37 1.36 1.38 1.42 1.45 1.44 1.39 1.33 1.33 1.31 1.27 1.22 1.18 1.16 1.18 1.14 1.10 1.07 1.02 1.02 1.02 1.01 0.99
1.35 1.40 1.43 1.44 1.43 1.49 1.49 1.46 1.47 1.48 1.51 1.52 1.51 1.50 1.54 1.49 1.37 1.37 1.38 1.43 1.41 1.43 1.45 1.46 1.48 1.42 1.36 1.31 1.31 1.29 1.25 1.23 1.22 1.18 1.14 1.10 1.06 1.04 1.06 1.05 1.05 1.05
1.41 1.43 1.51 1.50 1.46 1.49 1.49 1.44 1.45 1.47 1.52 1.49 1.52 1.51 1.49 1.46 1.40 1.36 1.36 1.38 1.42 1.50 1.50 1.45 1.46 1.45 1.37 1.32 1.32 1.31 1.26 1.21 1.20 1.18 1.14 1.10 1.09 1.07 1.06 1.08 1.07 1.10
1.43 1.43 1.39 1.37 1.34 1.43 1.40 1.42 1.44 1.46 1.52 1.51 1.55 1.58 1.54 1.49 1.42 1.41 1.41 1.46 1.46 1.42 1.37 1.41 1.43 1.41 1.37 1.32 1.34 1.34 1.28 1.19 1.17 1.17 1.15 1.14 1.13 1.12 1.10 1.10 1.10 1.09
1.42 1.42 1.44 1.41 1.35 1.36 1.40 1.46 1.49 1.56 1.60 1.60 1.58 1.57 1.52 1.45 1.43 1.45 1.38 1.40 1.47 1.45 1.41 1.41 1.37 1.36 1.33 1.33 1.39 1.38 1.29 1.21 1.16 1.16 1.17 1.17 1.16 1.14 1.12 1.10 1.09 1.09
1.45 1.51 1.52 1.49 1.47 1.47 1.53 1.64 1.67 1.62 1.53 1.54 1.60 1.54 1.52 1.45 1.37 1.43 1.38 1.35 1.34 1.40 1.45 1.41 1.36 1.28 1.30 1.35 1.38 1.37 1.31 1.25 1.20 1.18 1.18 1.18 1.18 1.19 1.18 1.17 1.15 1.13
1.48 1.52 1.56 1.61 1.68 1.73 1.70 1.54 1.40 1.40 1.45 1.43 1.51 1.51 1.50 1.44 1.41 1.36 1.40 1.44 1.40 1.38 1.36 1.39 1.29 1.32 1.39 1.38 1.39 1.37 1.33 1.27 1.21 1.18 1.18 1.19 1.20 1.20 1.21 1.20 1.19 1.18
1.58 1.65 1.67 1.74 1.74 1.64 1.62 1.64 1.55 1.45 1.41 1.42 1.46 1.49 1.52 1.44 1.38 1.35 1.34 1.31 1.36 1.36 1.30 1.29 1.28 1.29 1.32 1.39 1.41 1.39 1.34 1.29 1.24 1.20 1.20 1.22 1.23 1.22 1.22 1.21 1.21 1.23
1.68 1.72 1.74 1.79 1.77 1.77 1.86 1.83 1.68 1.52 1.34 1.28 1.32 1.34 1.36 1.43 1.45 1.34 1.24 1.22 1.29 1.25 1.24 1.25 1.26 1.25 1.28 1.36 1.39 1.39 1.38 1.34 1.32 1.31 1.30 1.24 1.21 1.20 1.21 1.22 1.25 1.27
1.70 1.71 1.75 1.79 1.77 1.76 1.80 1.83 1.59 1.48 1.43 1.35 1.33 1.34 1.39 1.41 1.43 1.43 1.31 1.22 1.22 1.22 1.24 1.24 1.22 1.30 1.32 1.34 1.42 1.40 1.43 1.37 1.34 1.36 1.38 1.36 1.30 1.25 1.22 1.24 1.28 1.32
1.67 1.70 1.75 1.74 1.77 1.80 1.79 1.70 1.65 1.54 1.48 1.46 1.39 1.36 1.35 1.38 1.39 1.41 1.36 1.26 1.20 1.19 1.17 1.20 1.23 1.32 1.32 1.32 1.41 1.41 1.37 1.33 1.32 1.37 1.43 1.42 1.34 1.26 1.22 1.25 1.33 1.39
1.67 1.69 1.71 1.70 1.69 1.68 1.65 1.62 1.60 1.58 1.55 1.54 1.51 1.46 1.43 1.42 1.41 1.40 1.37 1.28 1.20 1.15 1.13 1.18 1.25 1.34 1.33 1.32 1.34 1.34 1.30 1.25 1.35 1.43 1.40 1.35 1.34 1.30 1.30 1.32 1.32 1.37
1.67 1.62 1.62 1.59 1.51 1.46 1.51 1.56 1.55 1.52 1.51 1.51 1.50 1.51 1.49 1.41 1.39 1.39 1.36 1.35 1.29 1.27 1.24 1.24 1.28 1.31 1.30 1.31 1.29 1.27 1.22 1.22 1.33 1.38 1.35 1.35 1.34 1.36 1.34 1.37 1.40 1.43
1.57 1.48 1.43 1.43 1.42 1.43 1.46 1.49 1.49 1.49 1.50 1.51 1.49 1.47 1.44 1.41 1.37 1.33 1.36 1.43 1.43 1.36 1.30 1.27 1.39 1.35 1.32 1.34 1.33 1.23 1.21 1.26 1.31 1.31 1.38 1.43 1.41 1.39 1.40 1.42 1.46 1.48
1.42 1.36 1.34 1.37 1.39 1.41 1.43 1.44 1.46 1.46 1.48 1.47 1.46 1.45 1.42 1.36 1.34 1.35 1.48 1.53 1.41 1.37 1.35 1.39 1.39 1.40 1.39 1.38 1.28 1.20 1.22 1.32 1.38 1.43 1.45 1.44 1.43 1.43 1.43 1.45 1.52 1.60
1.34 1.32 1.34 1.39 1.41 1.42 1.40 1.39 1.41 1.42 1.41 1.43 1.44 1.47 1.46 1.43 1.46 1.53 1.58 1.59 1.52 1.42 1.43 1.39 1.35 1.38 1.38 1.32 1.23 1.20 1.26 1.32 1.34 1.41 1.51 1.47 1.43 1.47 1.50 1.53 1.55 1.50
1.36 1.34 1.35 1.39 1.42 1.39 1.36 1.35 1.37 1.41 1.45 1.48 1.44 1.46 1.45 1.46 1.52 1.55 1.62 1.58 1.54 1.49 1.39 1.31 1.33 1.35 1.29 1.28 1.26 1.24 1.28 1.32 1.32 1.36 1.46 1.49 1.49 1.54 1.55 1.54 1.50 1.48
1.39 1.39 1.38 1.40 1.40 1.36 1.34 1.36 1.40 1.43 1.46 1.50 1.47 1.46 1.46 1.49 1.53 1.56 1.58 1.54 1.49 1.41 1.35 1.30 1.30 1.29 1.26 1.28 1.27 1.26 1.26 1.28 1.30 1.34 1.40 1.45 1.48 1.58 1.58 1.62 1.57 1.52
1.44 1.44 1.45 1.41 1.38 1.37 1.36 1.37 1.40 1.40 1.45 1.49 1.49 1.48 1.47 1.50 1.50 1.48 1.51 1.51 1.47 1.42 1.38 1.32 1.29 1.29 1.26 1.25 1.20 1.21 1.25 1.28 1.27 1.27 1.30 1.37 1.53 1.56 1.55 1.53 1.51 1.53
1.46 1.46 1.45 1.42 1.38 1.37 1.37 1.41 1.46 1.45 1.43 1.44 1.45 1.44 1.41 1.42 1.43 1.40 1.35 1.38 1.42 1.43 1.46 1.44 1.38 1.36 1.28 1.21 1.17 1.19 1.22 1.26 1.27 1.27 1.32 1.43 1.50 1.49 1.47 1.53 1.54 1.53
Wind_Speed
15 14 13 14 14 13 14 13 13 13 12 12 12 12 11 12 12 12 11 11 11 12 12 12 12 13 13 13 13 13 13 13 13 13 14 14 14 14 14 14 14 14
16 15 14 14 13 13 13 13 13 13 13 13 13 13 13 13 13 13 13 12 12 13 13 13 13 14 14 14 14 14 14 14 14 14 14 15 15 15 15 15 15 16
18 17 15 15 14 14 14 14 14 14 14 14 14 15 15 15 14 14 14 14 14 14 14 14 15 15 15 15 15 15 15 15 15 15 15 15 16 16 16 16 16 16
19 18 17 17 16 15 15 16 15 15 15 16 16 16 16 16 16 16 16 15 15 16 16 16 16 16 17 17 16 16 16 16 16 15 15 16 16 16 17 17 17 17
20 19 19 18 18 17 17 18 17 17 17 17 17 17 17 17 17 17 17 17 17 17 17 17 17 18 18 18 17 17 17 17 17 16 16 16 17 17 17 17 17 17
21 21 20 20 19 19 20 20 19 19 19 18 18 18 18 18 19 19 19 19 19 19 19 19 19 19 19 19 19 18 18 17 17 17 17 17 17 17 17 17 17 17
22 22 22 21 21 21 22 21 20 20 20 20 20 20 20 20 20 21 21 21 21 20 20 20 21 21 20 20 20 19 19 19 18 18 18 18 17 17 17 17 17 18
22 22 22 23 23 23 23 22 22 22 22 22 22 22 22 22 22 22 22 22 22 22 22 23 23 22 21 21 20 20 20 19 20 19 19 18 18 17 17 17 17 18
22 22 23 24 25 25 25 24 24 24 24 24 23 24 24 24 24 24 24 24 24 24 24 24 24 24 23 23 22 21 21 20 20 20 20 19 19 18 18 18 18 18
22 22 23 24 25 25 25 25 25 24 24 24 24 24 25 25 25 25 26 25 25 26 26 25 25 25 25 25 24 23 23 22 21 21 21 20 20 19 19 18 18 18
23 23 23 24 25 26 26 26 25 24 24 24 25 25 26 26 26 27 27 27 27 27 27 27 26 26 26 26 25 25 25 24 23 22 22 22 21 20 20 19 19 19
23 23 24 25 25 26 25 25 24 24 25 27 27 28 28 29 29 29 28 29 29 28 27 27 27 27 27 27 27 27 26 26 25 24 23 22 22 21 21 20 20 20
23 24 24 25 25 25 25 24 25 27 28 30 31 31 31 31 31 30 29 29 29 28 28 27 28 28 28 28 28 28 27 27 26 25 24 23 22 22 22 22 21 21
23 23 23 24 24 25 25 25 26 28 29 30 31 31 30 29 29 29 29 29 29 28 28 28 29 29 28 29 29 29 28 28 28 26 25 23 23 22 23 23 23 23
21 21 22 23 24 25 25 26 26 28 28 28 29 29 29 29 28 28 29 30 29 29 29 29 29 29 28 29 30 30 30 30 28 27 25 24 23 23 23 24 24 24
20 21 22 24 24 25 26 27 27 27 27 27 28 29 30 30 30 30 30 30 30 30 29 29 29 28 28 28 29 29 28 28 27 26 25 25 25 24 24 24 25 25
20 22 23 23 24 25 27 27 28 28 28 28 28 28 29 29 29 30 30 30 31 31 30 30 29 29 28 27 27 27 27 27 27 27 26 26 26 25 25 25 25 25
21 22 22 23 24 25 26 27 27 28 28 29 29 28 28 28 28 29 29 30 31 30 29 29 29 28 28 27 26 27 27 27 28 27 27 26 26 25 25 25 25 25
22 22 22 23 24 24 25 26 27 28 28 29 29 29 29 28 28 28 29 29 29 28 28 28 28 28 27 26 26 26 26 27 28 27 27 27 26 26 26 26 26 26
22 22 23 24 24 25 26 27 27 28 28 29 30 30 29 29 28 28 28 27 27 27 28 28 27 27 27 26 25 25 26 27 27 27 27 28 27 27 27 27 27 27
22 22 23 24 25 25 26 27 28 29 29 29 29 29 29 29 28 28 27 26 26 26 26 26 26 27 27 26 25 25 26 27 27 26 27 28 28 28 27 27 27 27
22 22 23 24 25 26 27 27 28 29 29 29 29 29 29 28 27 26 26 25 25 25 25 25 27 27 27 27 26 26 27 27 26 26 27 28 28 29 28 27 27 27
21 21 23 24 25 26 27 28 28 29 28 29 29 28 28 27 25 23 23 22 22 23 24 25 26 27 27 27 26 26 26 26 26 26 26 27 28 28 27 26 26 26
21 22 24 25 26 26 27 28 28 28 28 29 29 28 26 25 23 22 21 21 21 21 22 24 26 27 27 26 25 25 25 25 24 25 26 27 27 27 26 26 26 26
22 23 24 25 26 27 27 27 27 28 28 27 27 26 24 23 21 20 20 21 22 22 23 24 26 26 26 25 24 23 24 24 23 24 25 26 26 26 26 27 27 27
23 24 25 26 27 27 27 27 27 28 27 26 25 24 23 21 20 19 19 20 21 22 23 24 25 24 24 23 22 22 23 23 23 23 24 25 24 25 26 28 28 28
Wind_Direction
237 239 241 243 244 246 247 248 250 251 254 258 262 265 268 270 273 272 272 273 276 277 278 279 281 283 284 285 285 285 285 283 282 282 280 279 280 281 281 282 282 283
237 239 241 244 246 249 249 250 251 253 257 262 265 268 270 272 273 273 274 276 277 278 278 279 279 281 282 284 285 286 286 285 283 281 280 279 280 280 280 281 281 283
239 240 242 244 247 249 250 251 253 257 261 264 268 270 271 272 273 274 275 276 277 278 278 278 278 279 280 282 284 286 286 285 283 282 281 280 281 280 280 280 281 283
241 242 243 246 248 251 253 253 256 259 262 264 266 269 271 272 272 273 274 275 277 278 278 278 277 277 279 281 284 285 285 285 284 282 280 280 281 280 280 280 281 282
242 243 245 249 251 253 255 255 257 260 261 262 264 266 268 270 271 271 273 274 277 277 278 278 277 277 278 279 282 284 283 283 283 281 280 280 280 280 279 279 280 281
243 245 248 251 253 256 256 256 258 259 260 262 264 266 268 270 271 271 272 274 276 276 276 277 277 277 277 277 279 281 280 280 281 280 279 279 279 278 278 278 279 279
245 247 249 252 255 256 256 256 258 259 260 262 264 267 269 271 272 272 273 274 275 275 276 277 277 277 275 275 277 278 278 277 278 278 277 278 277 276 277 278 278 278
247 249 251 254 256 257 257 258 259 260 261 263 265 267 269 270 272 274 274 274 274 276 277 275 276 277 275 274 274 276 277 276 276 276 276 275 275 275 276 276 278 278
249 251 252 254 256 257 258 259 260 261 261 263 265 268 270 271 273 274 274 272 274 279 280 276 275 276 274 272 272 274 276 276 275 275 275 274 273 273 274 275 277 278
250 253 254 255 256 258 259 260 261 261 261 263 266 269 271 271 273 274 273 272 275 279 279 276 275 275 273 271 270 272 274 275 275 274 274 273 272 272 273 273 275 277
251 254 256 256 258 260 261 260 261 262 263 266 269 272 272 272 274 276 274 272 276 278 276 274 274 273 272 270 270 272 273 274 274 273 274 272 271 272 273 271 273 274
252 255 257 258 261 263 262 261 262 264 266 269 273 275 274 273 274 275 274 274 276 277 276 275 274 273 271 270 271 271 271 272 272 272 274 272 270 272 272 270 271 274
254 257 260 261 263 265 264 263 266 269 271 272 275 276 275 274 274 272 273 274 275 275 276 276 276 275 274 271 270 270 270 271 271 271 272 271 270 271 272 271 272 274
256 259 261 262 265 267 266 268 271 273 274 274 274 274 274 275 274 272 272 274 275 274 275 276 276 276 276 273 270 269 270 270 269 270 271 270 269 271 272 272 274 275
257 260 262 264 268 270 271 275 276 274 273 273 272 273 274 275 275 274 273 273 273 274 275 276 276 276 276 275 271 270 271 270 268 269 271 268 268 271 272 273 275 276
259 261 264 267 270 272 275 278 278 275 273 273 272 273 273 274 274 275 274 272 272 273 273 273 275 276 277 276 274 272 270 268 266 267 270 268 267 270 272 273 275 276
263 266 268 271 273 274 276 279 280 279 276 275 275 275 274 273 274 274 274 272 271 270 270 271 273 276 277 276 276 276 272 266 263 266 270 269 268 269 272 274 275 277
267 270 271 273 276 276 278 281 282 281 280 279 279 279 276 274 273 273 273 272 269 267 268 270 272 274 275 274 275 277 273 265 262 264 268 269 268 269 271 274 276 278
268 272 272 274 277 279 281 283 284 284 284 283 282 281 279 275 274 274 272 270 267 265 266 270 272 273 273 272 273 275 274 267 263 263 266 267 267 269 272 273 275 278
268 271 273 275 278 280 282 283 285 285 286 287 285 284 280 276 274 274 272 268 265 265 267 270 271 271 271 271 273 275 275 271 264 262 264 266 267 270 271 271 274 277
267 270 273 275 278 281 282 283 284 286 288 288 287 285 281 278 275 274 271 267 264 266 268 268 270 271 270 270 272 274 275 273 266 264 266 266 267 270 270 270 273 276
267 270 274 276 280 282 284 284 285 286 288 288 288 287 283 278 276 274 270 266 264 266 267 268 271 272 270 270 272 273 274 272 267 266 266 266 268 270 269 270 273 276
268 272 276 280 282 284 285 286 287 287 288 287 286 286 282 276 274 273 269 265 265 267 267 269 273 273 269 270 272 270 270 269 267 266 266 268 271 271 269 271 275 277
270 275 279 282 285 287 287 288 289 290 290 288 286 285 281 276 273 272 268 264 266 269 270 272 275 273 269 271 271 267 267 267 267 266 268 271 272 270 270 274 277 278
273 277 281 284 287 290 291 291 292 293 293 290 286 283 280 276 273 271 268 266 266 269 273 276 276 274 271 271 270 267 266 267 266 266 269 272 272 270 272 277 278 277
278 280 282 287 290 292 293 293 293 293 293 291 286 281 277 274 273 271 270 267 267 270 274 276 276 275 273 271 267 266 266 265 265 267 270 271 271 271 277 281 280 278